Location: Bittkow
(50.3000°N, 19.0000°E)
Time: 13:18:19
(UTC+00:00)

Lacrosse 5 - Pass Details

Date: 19 September 2020
Orbit: 716 x 723 km, 57.0° (Epoch: 20 October)

Event Time Altitude Azimuth Distance (km) Brightness Sun altitude
Maximum altitude 01:28:28 37° 133° (SE) 1,110 2.8 -26.8°
Exits shadow 01:28:28 37° 133° (SE) 1,110 2.8 -26.8°
Drops below altitude 10° 01:33:04 10° 67° (ENE) 2,194 5.3 -26.3°
Sets 01:35:37 0° 59° (ENE) 3,131 6.5 -26.0°
